Regional Weather Roundup
Issued by NWS Midland/Odessa, TX

Skip options and go directly to product.
Home | Oldest Version | Previous Version | Current Version | All | Text Only | Save Text | Print | Product List | Glossary Off

Skip product version selection by date and time.   

857
ASUS44 KMAF 041710
RWRMAF
MIDLAND AREA WEATHER ROUNDUP
NATIONAL WEATHER SERVICE MIDLAND TX
1200 PM CDT WED MAY 04 2016

...IN SOUTHWEST TEXAS AND SOUTHEAST NEW MEXICO...

CITY           SKY/WX    TMP DP  RH WIND       PRES   REMARKS
ALPINE         SUNNY     71  32  24 NE6       30.33F
ANDREWS        FAIR      76  31  19 NE5G16    30.23F
ARTESIA        SUNNY     72  34  25 CALM      30.26F
BIG SPRING     SUNNY     71  38  30 N7        30.23F
CARLSBAD       SUNNY     74  33  22 CALM      30.24F
DRYDEN           N/A     80  40  23 VRB5      30.18F
FORT STOCKTON  SUNNY     76  33  21 VRB6      30.23F
GUAD PASS      SUNNY     68  28  22 E20       30.32F
HOBBS          SUNNY     73  27  17 N7        30.26S
MARFA          SUNNY     71  31  22 NE10G18   30.31S
MIDLAND AIRPK  SUNNY     76  35  21 N6        30.22F
MIDLAND INTL   SUNNY     77  36  22 NW6       30.21F
ODESSA         SUNNY     78  30  17 NE10      30.22F
PECOS          SUNNY     74  43  32 S5        30.23S
PRESIDIO       FAIR      80  42  25 MISG      30.19F
SEMINOLE       SUNNY     74  30  19 N8        30.24F
SNYDER           N/A     73  38  28 NW15G21   30.20S
WINK           SUNNY     76  35  22 CALM      30.21F
$$
...OTHER STATIONS IN TEXAS...

CITY           SKY/WX    TMP DP  RH WIND       PRES   REMARKS
ABILENE        SUNNY     72  49  44 N13       30.16F
AMARILLO       SUNNY     71  35  26 N9        30.22S
AUSTIN         MOSUNNY   79  53  40 N5        30.09F
BROWNSVILLE    SUNNY     80  59  48 N12       30.09S
CORPUS CHRISTI MOSUNNY   80  47  31 N8        30.10F
DALLAS FTW     SUNNY     77  51  40 NW12      30.06S
DEL RIO        SUNNY     75  54  47 CALM      30.14F
EL PASO        SUNNY     75  29  18 E13G18    30.24F
HOUSTON INT    SUNNY     75  49  39 NW12      30.08F
LUBBOCK        SUNNY     74  35  24 NW10G20   30.20F
SAN ANGELO     SUNNY     76  41  28 NW13      30.18S
SAN ANTONIO    MOSUNNY   78  52  40 W12       30.12F
WACO           SUNNY     79  55  43 NW7       30.08F
WICHITA FALLS  NOT AVBL
$$
...OTHER LOCATIONS IN NEW MEXICO...

CITY           SKY/WX    TMP DP  RH WIND       PRES   REMARKS
ALAMAGORDO     SUNNY     70  32  24 CALM      30.28F
ALBUQUERQUE    MOSUNNY   66  30  26 NW5       30.32F
CANNON AFB     SUNNY     71  31  23 NW13      30.26S
CLOVIS         SUNNY     72  36  26 NW12      30.27S
HOLLOMAN AFB   SUNNY     73  30  21 S7        30.26F
ROSWELL        SUNNY     72  34  24 CALM      30.26F
RUIDOSO          N/A     63  21  20 SE10      30.39F
SANTA FE       SUNNY     65  26  23 S7        30.35F
TRUTH OR CONSE SUNNY     70  30  22 CALM      30.28F
TUCUMCARI      SUNNY     74  31  20 N6G17     30.24F
$$

USA.gov is the U.S. government's official web portal to all federal, state and local government web resources and services.